📊 Raw Sensor Data
Showing records 39701 to 39725 of 84,950 total
| ID | Distance (ft) | Battery V | Battery A | Int Temp (°F) | Int Humid (%) | Ext Temp (°F) | Solar V | RSSI | SNR | Time Stamp |
|---|---|---|---|---|---|---|---|---|---|---|
| 45262 | 15.8 | 3.88 | 0 | 93 | 47 | 82 | 5.10 | -68 | 7 | 07/03/2025 04:15 PM |
| 45261 | 15.8 | 3.87 | 0 | 95 | 45 | 87 | 5.10 | -68 | 8 | 07/03/2025 04:00 PM |
| 45260 | 15.8 | 3.87 | 0 | 96 | 44 | 87 | 5.10 | -68 | 7 | 07/03/2025 03:45 PM |
| 45259 | 15.8 | 3.87 | 0 | 95 | 44 | 88 | 5.10 | -69 | 8 | 07/03/2025 03:30 PM |
| 45258 | 15.7 | 3.87 | 0 | 94 | 43 | 88 | 5.10 | -69 | 8 | 07/03/2025 03:15 PM |
| 45257 | 15.7 | 3.87 | 0 | 93 | 43 | 88 | 5.10 | -68 | 7 | 07/03/2025 03:00 PM |
| 45256 | 15.7 | 3.89 | 0 | 92 | 43 | 85 | 5.10 | -68 | 8 | 07/03/2025 02:45 PM |
| 45255 | 15.7 | 3.87 | 0 | 92 | 43 | 85 | 5.10 | -68 | 8 | 07/03/2025 02:30 PM |
| 45254 | 15.7 | 3.87 | 0 | 92 | 43 | 84 | 5.10 | -69 | 8 | 07/03/2025 02:15 PM |
| 45253 | 15.7 | 3.87 | 0 | 91 | 43 | 86 | 5.10 | -68 | 8 | 07/03/2025 02:00 PM |
| 45252 | 15.7 | 3.87 | 0 | 90 | 43 | 84 | 5.10 | -69 | 8 | 07/03/2025 01:45 PM |
| 45251 | 15.7 | 3.87 | 0 | 88 | 44 | 81 | 5.10 | -67 | 8 | 07/03/2025 01:30 PM |
| 45250 | 15.7 | 4.10 | 0 | 86 | 45 | 81 | 5.10 | -68 | 8 | 07/03/2025 01:15 PM |
| 45249 | 15.7 | 3.98 | 0 | 88 | 43 | 83 | 5.10 | -68 | 7 | 07/03/2025 01:00 PM |
| 45248 | 15.7 | 3.87 | 0 | 87 | 44 | 80 | 5.10 | -68 | 7 | 07/03/2025 12:45 PM |
| 45247 | 15.7 | 4.00 | 0 | 86 | 44 | 83 | 5.10 | -68 | 7 | 07/03/2025 12:30 PM |
| 45246 | 15.7 | 3.89 | 0 | 85 | 44 | 80 | 5.10 | -67 | 8 | 07/03/2025 12:00 PM |
| 45245 | 15.7 | 4.10 | 0 | 85 | 44 | 82 | 5.10 | -67 | 7 | 07/03/2025 11:45 AM |
| 45244 | 15.7 | 3.87 | 0 | 84 | 44 | 85 | 5.10 | -67 | 8 | 07/03/2025 11:30 AM |
| 45243 | 15.7 | 3.87 | 0 | 84 | 43 | 86 | 5.10 | -70 | 8 | 07/03/2025 11:15 AM |
| 45242 | 15.7 | 3.97 | 0 | 82 | 43 | 84 | 5.10 | -68 | 7 | 07/03/2025 11:00 AM |
| 45241 | 15.6 | 3.87 | 0 | 81 | 43 | 85 | 5.10 | -68 | 8 | 07/03/2025 10:45 AM |
| 45240 | 15.7 | 3.87 | 0 | 81 | 43 | 82 | 5.10 | -67 | 7 | 07/03/2025 10:30 AM |
| 45239 | 15.7 | 3.87 | 0 | 80 | 43 | 83 | 5.10 | -67 | 7 | 07/03/2025 10:15 AM |
| 45238 | 15.7 | 3.87 | 0 | 78 | 43 | 81 | 5.10 | -69 | 8 | 07/03/2025 10:00 AM |